User: anonymous   Login
Location: Unspecified
(0.0000°N, 0.0000°E)
Time: 04:04:59
(UTC+02:00)
Language:

ISS - Orbit

View from above orbital plane
View from above orbital plane
View from above satellite
View from above satellite

Ground track
Ground track

The orbit data is extracted from the following two-line orbital elements,

1 25544U 98067A   16148.83800329  .00001174  00000-0  24495-4 0  9994
2 25544  51.6431 159.5460 0001851 132.9669 286.2283 15.54692071  1825
Epoch (UTC): 27 May 2016 20:06:43
Eccentricity: 0.0001851
inclination: 51.6431°
perigee height: 402 km
apogee height: 404 km
right ascension of ascending node: 159.5460°
argument of perigee: 132.9669°
revolutions per day: 15.54692071
mean anomaly at epoch: 286.2283°
orbit number at epoch: 182

The dashed part of the orbit path shows where the satellite is in the earth's shadow,  

DLR